Regional Weather Roundup
Issued by NWS

Current Version | Previous Version | Text Only | Print | Product List | Glossary On
Versions: 1 2 3 4 5 6 7 8 9 10 11 12 13 14 15 16 17 18 19 20 21 22 23 24 25 26 27 28 29 30 31 32 33 34 35 36 37 38 39 40 41 42 43 44 45 46 47 48 49 50
000
ASUS44 KLIX 221613
RWRLA
LOUISIANA WEATHER ROUNDUP
NATIONAL WEATHER SERVICE NEW ORLEANS LA
1000 AM CST WED NOV 22 2017

NOTE: "FAIR" INDICATES FEW OR NO CLOUDS BELOW 12,000 FEET WITH NO
      SIGNIFICANT WEATHER AND/OR OBSTRUCTIONS TO VISIBILITY.
      SKY/WX - SKY CONDITION AND SIGNIFICANT WEATHER.
      TMP - AIR TEMPERATURE.    DP   - DEWPOINT TEMPERATURE.
      RH  - RELATIVE HUMIDITY.  PRES - PRESSURE.
      HX  - HEAT INDEX.         WCI  - WIND CHILL INDEX.

*  THESE STATIONS ARE NOT NWS OR FAA STATIONS AND ARE NOT UNDER
   NWS QUALITY CONTROL.

LAZ040-048-061>063-065-066-069-221700-
SOUTHEAST LOUISIANA

CITY           SKY/WX    TMP DP  RH WIND       PRES   REMARKS
N.O. INTL ARPT CLOUDY    61  44  53 N15G21    30.14S
N.O. LAKEFRONT PTSUNNY   60  45  57 NE23      30.14F
N.O. DOWNTOWN* CLOUDY    60  43  53 N10G18    30.15R
RESERVE*       FAIR      62  40  43 NE14G22   30.16S
SLIDELL        SUNNY     61  40  45 N13       30.14F
BATON ROUGE    SUNNY     59  42  53 N12       30.17F
BOOTHVILLE     CLOUDY    63  47  55 N14G23    30.10R
BELLE CHASSE   CLOUDY    60  45  57 NE12G20   30.13R
BOGALUSA*      NOT AVBL
GALLIANO*      CLOUDY    62  41  46 NE16G23   30.11S
NEW ROADS*     FAIR      58  44  58 N12       30.20S
GONZALES*      FAIR      61  43  51 N9        30.16S
HAMMOND*       SUNNY     59  41  51 N14       30.16F
HOUMA*         PTSUNNY   59  46  63 N14       30.13R
PORT FOURCHON* NOT AVBL

$$

LAZ041-044-053-054-221700-
SOUTHWEST LOUISIANA

CITY           SKY/WX    TMP DP  RH WIND       PRES   REMARKS
LAKE CHARLES   SUNNY     61  50  67 NE14      30.21R
LAFAYETTE      SUNNY     60  48  64 N12       30.18S
PATTERSON      CLOUDY    60  47  61 NE16G22   30.16R
SALT POINT       N/A      1  32 100 N8        30.15R WCI -13
NEW IBERIA     SUNNY     61  45  55 N17G25    30.18S
CHENAULT AIRPK SUNNY     61  52  72 N14       30.22R

$$

LAZ027-028-221700-
CENTRAL LOUISIANA

CITY           SKY/WX    TMP DP  RH WIND       PRES   REMARKS
FORT POLK      SUNNY     53  44  72 N7        30.24S
ALEXANDRIA INT SUNNY     54  43  66 N10       30.24S
ALEXANDRIA     SUNNY     54  42  64 NE10G16   30.25R

$$

LAZ001-002-221700-
NORTHWEST LOUISIANA

CITY           SKY/WX    TMP DP  RH WIND       PRES   REMARKS
SHREVEPORT     SUNNY     53  30  41 NE13      30.31S
BARKSDALE AFB  SUNNY     53  29  40 NE12      30.31S
DTN SHREVEPORT SUNNY     53  30  41 NE12      30.32S

$$

LAZ014-016-221700-
NORTHEAST LOUISIANA

CITY           SKY/WX    TMP DP  RH WIND       PRES   REMARKS
MONROE         SUNNY     52  30  43 NE14      30.32R
TALLULAH       SUNNY     52  34  50 N12       30.29R

$$




USA.gov is the U.S. government's official web portal to all federal, state and local government web resources and services.